Location: Ashtead
(51.3000°N, 0.3000°W)
Time: 20:06:28
(UTC+00:00)

Cosmos 2322 Rocket - Pass Details

Date: 26 September 2023
Orbit: 830 x 852 km, 71.0° (Epoch: 09 December)

Event Time Altitude Azimuth Distance (km) Brightness Sun altitude
Rises 03:42:42 0° 327° (NNW) 3,396 5.3 -20.6°
Reaches altitude 10° 03:45:11 10° 324° (NW) 2,461 4.5 -20.2°
Maximum altitude 03:50:42 58° 247° (WSW) 974 2.2 -19.4°
Drops below altitude 10° 03:56:13 10° 169° (S) 2,459 4.5 -18.6°
Sets 03:58:42 0° 166° (SSE) 3,393 5.3 -18.3°
